[[{"header":{"parameterUnit":"m.s-1","parameterCategory":1,"la1":30.2991,"la2":30.254,"lo1":-89.0895,"lo2":-89.0444,"dy":0.0017,"dx":0.0017,"nx":28,"ny":28,"refTime":"2024-07-31T21:00:00:Z","depth":0,"parameterNumber":2,"parameterNumberName":"U-component_of_WINDS"},"data":[0,0,0,0,0,0,0,0,0,0,0,0,0,0,0,0,0,0,0,0,0,0,0,0,0,0,0,0,0,0,0,0,0,0,0,0,0,0,0,0,0,0,0,0,0,0,0,0,0,0,0,0,0,0,0,0,0,0,1.8601,1.8603,0,1.8792,1.8794,1.8796,1.8839,1.8837,1.8836,1.8835,1.9035,1.9042,1.9048,0,0,0,0,0,0,0,0,0,0,0,0,0,1.8279,1.8285,1.8601,1.8603,1.8606,1.8791,1.8794,1.8797,1.8839,1.8837,1.8836,1.8834,1.9033,1.9041,1.9049,0,0,0,0,0,0,0,0,0,0,0,0,0,1.8439,1.8287,1.8601,1.8649,1.8655,1.8791,1.8794,1.8797,1.8839,1.8837,1.8835,1.8833,1.9031,1.904,1.905,1.9152,0,0,1.908,1.9085,0,0,0,0,0,0,0,0,1.843,1.8451,1.864,1.8646,1.8653,1.8789,1.8754,1.8916,1.884,1.877,1.8835,1.8832,1.8955,1.8971,1.9012,1.9162,1.917,1.9081,1.9087,1.9091,1.9094,0,0,0,0,0,0,0,1.8419,1.8443,1.8677,1.8642,1.8651,1.8663,1.8684,1.8785,1.8872,1.8776,1.8779,1.8801,1.8959,1.9002,1.9017,1.9173,1.9081,1.909,1.9096,1.91,1.9417,1.9419,0,0,0,0,0,0,1.8399,1.8434,1.8671,1.8682,1.8534,1.8671,1.8693,1.8748,1.8871,1.8888,1.8802,1.8802,1.8986,1.9005,1.9024,1.9152,1.9091,1.9101,1.9106,1.9414,1.9417,1.942,0,0,0,0,0,0,1.8392,1.8419,1.8663,1.8559,1.8591,1.8678,1.8739,1.8753,1.8796,1.8891,1.8907,1.883,1.8985,1.901,1.912,1.916,1.9105,1.9114,1.9411,1.9415,1.9419,1.9409,0,0,0,0,0,0,1.8382,1.8417,1.8455,1.856,1.8596,1.8754,1.8741,1.8758,1.8812,1.8814,1.8922,1.8938,1.8986,1.9105,1.913,1.9173,1.9122,1.9408,1.9413,1.9417,1.9406,1.9412,1.9417,0,0,0,0,0,1.8371,1.8446,1.8457,1.8485,1.8646,1.8756,1.8777,1.883,1.8815,1.8856,1.8917,1.8934,1.9151,1.9115,1.9144,1.919,1.9406,1.9412,1.9417,1.9404,1.9411,1.9417,0,0,0,0,0,0,1.8347,1.8461,1.8474,1.8585,1.866,1.8763,1.8816,1.8835,1.8918,1.8916,1.8979,1.9003,1.9108,1.9161,1.9119,1.9296,1.9278,1.929,1.9258,1.9266,1.9271,1.9257,1.913,0,0,0,0,0,1.8354,1.8432,1.8528,1.8617,1.8654,1.8728,1.8778,1.8811,1.8892,1.8925,1.8994,1.9074,1.916,1.9216,1.93,1.9413,1.9438,1.9459,1.9465,1.9469,1.9478,1.9543,1.9553,1.9438,1.9438,1.9438,0,0,1.8371,1.8442,1.8488,1.8614,1.8676,1.8757,1.8755,1.884,1.8902,1.8939,1.9046,1.9099,1.9193,1.9304,1.9357,1.9351,1.9515,1.9476,1.9478,1.9486,1.9549,1.956,1.957,1.9442,1.9441,1.9441,0,0,1.8442,1.8504,1.8585,1.8647,1.874,1.8789,1.8808,1.8907,1.8944,1.9052,1.9081,1.9156,1.9303,1.9368,1.942,1.9515,1.9535,1.9541,1.957,1.9631,1.9641,1.9649,1.9684,1.9695,1.955,1.955,1.955,0,1.8452,1.8573,1.8625,1.8709,1.8764,1.8798,1.8882,1.894,1.9057,1.9095,1.9085,1.927,1.9335,1.9463,1.9486,1.9527,1.9552,1.953,1.9635,1.9644,1.9652,1.9686,1.9699,1.955,1.955,1.955,1.955,0,1.8581,1.8665,1.8719,1.8829,1.889,1.8973,1.9038,1.9094,1.9122,1.9172,1.9282,1.9361,1.9462,1.9494,1.9523,1.9627,1.962,1.9622,1.9606,1.9663,1.9696,1.9709,1.955,1.955,1.955,1.955,0,0,1.8645,1.878,1.8799,1.885,1.8954,1.9021,1.9106,1.9203,1.925,1.9329,1.9403,1.9526,1.9528,1.9588,1.9624,1.9678,1.9749,1.9674,1.9677,1.9686,1.9869,1.9867,1.9881,1.9762,1.9765,1.9767,1.9861,0,1.873,1.8882,1.893,1.9057,1.9135,1.9169,1.9243,1.9317,1.9365,1.944,1.9495,1.9581,1.9577,1.9613,1.9668,1.9729,1.9787,1.9722,1.9833,1.9837,1.981,1.9899,1.9898,1.9983,1.9874,1.9877,1.9878,0,1.8851,1.8929,1.9064,1.9158,1.9193,1.9259,1.9351,1.9422,1.9506,1.9538,1.9603,1.9634,1.9726,1.9703,1.9831,1.9786,1.9834,1.9871,1.9875,1.9889,1.9862,1.9916,2.0012,2.0025,1.9899,1.9897,1.9896,0,1.8885,1.9025,1.9123,1.9165,1.9277,1.9323,1.9372,1.9454,1.9509,1.959,1.9627,1.9718,1.9768,1.9839,1.9895,1.9873,2.0019,2.0,2.0049,2.0048,2.008,2.0077,2.0186,2.0108,2.0108,2.0108,2.0108,0,1.8976,1.9057,1.914,1.92,1.9293,1.9347,1.9438,1.9489,1.9561,1.9634,1.9668,1.9736,1.9805,1.9882,1.9927,2.0026,2.0049,2.0078,2.009,2.0076,2.0072,2.0109,2.0105,2.0111,2.0111,2.011,2.0109,0,1.903,1.9089,1.9198,1.9295,1.9321,1.9385,1.9468,1.9529,1.9578,1.967,1.9694,1.9773,1.9865,1.9927,2.0046,2.0076,2.0185,2.0194,2.0156,2.0161,2.0207,2.0202,2.0344,2.0366,2.0273,2.0274,2.0274,0,1.9085,1.9148,1.9251,1.9301,1.9349,1.943,1.9485,1.9542,1.9599,1.9698,1.9748,1.9842,1.992,2.0066,2.0135,2.0226,2.0239,2.0282,2.0253,2.0237,2.0241,2.0237,2.0244,2.0287,2.0288,2.0289,2.0289,0,1.9177,1.9202,1.928,1.9368,1.9433,1.9506,1.9579,1.9618,1.9687,1.9749,1.9843,1.9904,2.0024,2.0118,2.0215,2.0268,2.0291,2.0297,2.0314,2.0301,2.0277,2.0291,2.0169,2.0294,2.0294,2.0293,2.0293,2.0293,1.9235,1.9292,1.9373,1.9458,1.9518,1.9585,1.9647,1.9703,1.9781,1.9882,1.9911,2.0009,2.0092,2.0224,2.0278,2.0357,2.0353,2.0376,2.0383,2.0388,2.0388,2.0263,2.0375,2.0375,2.0375,2.0374,2.0374,0,1.9329,1.9382,1.946,1.9559,1.9627,1.964,1.9721,1.9777,1.9862,1.9936,2.0012,2.012,2.021,2.0285,2.0379,2.0427,2.044,2.045,2.0448,2.046,2.0386,2.0363,2.0438,2.0438,2.0438,2.0438,2.0438,2.0438,1.9386,1.9483,1.9518,1.9646,1.97,1.9794,1.9839,1.9902,1.9961,2.0079,2.0154,2.0201,2.0276,2.0375,2.0459,2.0479,2.0512,2.052,2.0542,2.0472,2.0465,2.0458,2.0437,2.0527,2.0527,2.061,2.0611,2.0611]},{"header":{"parameterUnit":"m.s-1","parameterCategory":1,"la1":30.2991,"la2":30.254,"lo1":-89.0895,"lo2":-89.0444,"dy":0.0017,"dx":0.0017,"nx":28,"ny":28,"refTime":"2024-07-31T21:00:00:Z","depth":0,"parameterNumber":3,"parameterNumberName":"V-component_of_WINDS"},"data":[0,0,0,0,0,0,0,0,0,0,0,0,0,0,0,0,0,0,0,0,0,0,0,0,0,0,0,0,0,0,0,0,0,0,0,0,0,0,0,0,0,0,0,0,0,0,0,0,0,0,0,0,0,0,0,0,0,0,1.0366,1.0366,0,1.0359,1.0359,1.0358,1.035,1.035,1.0349,1.0349,1.0341,1.0341,1.034,0,0,0,0,0,0,0,0,0,0,0,0,0,1.0369,1.0369,1.0366,1.0366,1.0366,1.0359,1.0359,1.0358,1.035,1.035,1.0349,1.0349,1.0341,1.0341,1.034,0,0,0,0,0,0,0,0,0,0,0,0,0,1.0365,1.0369,1.0366,1.0361,1.036,1.0359,1.0359,1.0358,1.035,1.035,1.0349,1.0349,1.0341,1.0341,1.034,1.0343,0,0,1.034,1.034,0,0,0,0,0,0,0,0,1.0366,1.0365,1.0362,1.0361,1.036,1.0355,1.0356,1.0353,1.035,1.0354,1.0349,1.0349,1.0345,1.0345,1.0344,1.0343,1.0343,1.034,1.034,1.034,1.034,0,0,0,0,0,0,0,1.0366,1.0366,1.0363,1.0361,1.0361,1.0357,1.0357,1.0356,1.0351,1.0353,1.0353,1.0352,1.0345,1.0344,1.0344,1.0342,1.034,1.034,1.034,1.034,1.034,1.034,0,0,0,0,0,0,1.0367,1.0366,1.0363,1.0363,1.0363,1.0358,1.0357,1.0357,1.0351,1.035,1.0352,1.0352,1.0345,1.0344,1.0343,1.0344,1.034,1.034,1.034,1.034,1.034,1.034,0,0,0,0,0,0,1.0367,1.0367,1.0364,1.0364,1.0363,1.0358,1.0358,1.0357,1.0356,1.035,1.0349,1.0352,1.0344,1.0344,1.0343,1.0344,1.034,1.0339,1.034,1.034,1.034,1.0348,0,0,0,0,0,0,1.0368,1.0367,1.0369,1.0364,1.0363,1.0364,1.0358,1.0357,1.0356,1.0355,1.035,1.0349,1.0344,1.0343,1.0343,1.0344,1.0339,1.034,1.034,1.034,1.0347,1.0348,1.0349,0,0,0,0,0,1.0368,1.0372,1.037,1.0369,1.0366,1.0364,1.0364,1.0359,1.0356,1.0357,1.0353,1.0349,1.0344,1.0343,1.0342,1.0344,1.0339,1.034,1.034,1.0347,1.0348,1.0349,0,0,0,0,0,0,1.0378,1.0372,1.0369,1.0372,1.0369,1.0363,1.0365,1.0361,1.0358,1.0357,1.0351,1.035,1.0349,1.0346,1.0345,1.0344,1.0341,1.0341,1.0346,1.0347,1.0348,1.0349,1.0339,0,0,0,0,0,1.0381,1.0381,1.0375,1.0378,1.0377,1.0371,1.037,1.0366,1.0362,1.0361,1.0357,1.0353,1.035,1.0349,1.0346,1.0347,1.0344,1.0347,1.0347,1.0348,1.0348,1.0346,1.0346,1.0341,1.0341,1.0341,0,0,1.0386,1.0383,1.0383,1.038,1.0377,1.0376,1.037,1.037,1.0368,1.0361,1.036,1.0356,1.0351,1.035,1.035,1.0348,1.0349,1.0348,1.0349,1.0349,1.0346,1.0346,1.0347,1.0341,1.0341,1.0341,0,0,1.0396,1.0394,1.0395,1.0392,1.0387,1.0383,1.0383,1.0377,1.0374,1.0373,1.0367,1.0364,1.036,1.0356,1.0354,1.0358,1.0353,1.0357,1.0361,1.0358,1.0359,1.0359,1.0359,1.0359,1.0357,1.0357,1.0357,0,1.0403,1.0402,1.0396,1.0396,1.0393,1.0386,1.0386,1.0383,1.0378,1.0376,1.0374,1.0367,1.0363,1.036,1.036,1.0359,1.0358,1.0358,1.0359,1.0359,1.036,1.0359,1.0359,1.0357,1.0357,1.0357,1.0357,0,1.041,1.0409,1.0411,1.0405,1.0403,1.0403,1.0395,1.0394,1.0389,1.0384,1.0381,1.0376,1.0371,1.037,1.0366,1.0365,1.0364,1.0361,1.0357,1.0361,1.036,1.036,1.0358,1.0358,1.0358,1.0358,0,0,1.0428,1.0417,1.0418,1.0414,1.0407,1.0405,1.0403,1.0398,1.0396,1.0391,1.0389,1.0384,1.038,1.0377,1.0372,1.037,1.0371,1.0366,1.0366,1.0366,1.0367,1.0369,1.0369,1.0368,1.0368,1.0368,1.0367,0,1.0435,1.0432,1.0426,1.0424,1.0422,1.0413,1.0411,1.0406,1.0401,1.0397,1.0391,1.0387,1.0383,1.038,1.0378,1.0371,1.0371,1.0371,1.0363,1.0363,1.0365,1.0369,1.0372,1.0372,1.0367,1.0367,1.0367,0,1.0444,1.0439,1.0438,1.0428,1.0427,1.0425,1.0418,1.0415,1.0408,1.0404,1.0399,1.0393,1.0388,1.0385,1.0378,1.0378,1.0374,1.037,1.037,1.0369,1.0365,1.0367,1.0372,1.0372,1.0367,1.0367,1.0367,0,1.0455,1.0448,1.0446,1.0443,1.0432,1.0431,1.0426,1.0418,1.0415,1.0408,1.0405,1.0399,1.0395,1.0389,1.038,1.0379,1.0373,1.037,1.0368,1.0369,1.0368,1.0368,1.0371,1.0366,1.0366,1.0366,1.0366,0,1.0463,1.0462,1.045,1.0449,1.0446,1.0437,1.0435,1.0429,1.0422,1.0418,1.041,1.0406,1.0395,1.0389,1.0383,1.0376,1.0375,1.0371,1.0369,1.0371,1.0371,1.0368,1.0368,1.0366,1.0366,1.0366,1.0366,0,1.0476,1.0468,1.0464,1.0453,1.045,1.0449,1.0439,1.0436,1.0429,1.0424,1.0422,1.0412,1.0404,1.0395,1.0385,1.038,1.0374,1.0372,1.0376,1.0375,1.0374,1.0374,1.0375,1.0374,1.0371,1.0371,1.0371,0,1.0482,1.048,1.0469,1.0465,1.0461,1.0456,1.0451,1.0442,1.0437,1.0427,1.0425,1.0417,1.041,1.0398,1.0388,1.038,1.0376,1.0377,1.0375,1.0376,1.0375,1.0375,1.0373,1.0378,1.0378,1.0378,1.0378,0,1.0492,1.0487,1.0482,1.0474,1.0469,1.0462,1.0455,1.0453,1.0441,1.0436,1.0428,1.0423,1.0411,1.0403,1.0392,1.0386,1.0379,1.0379,1.0378,1.038,1.0382,1.0379,1.0377,1.0379,1.0379,1.0379,1.0379,1.0379,1.05,1.0498,1.0489,1.0482,1.0475,1.0468,1.0464,1.0456,1.0449,1.0439,1.0434,1.0425,1.0415,1.04,1.0394,1.0386,1.0384,1.0383,1.0383,1.0382,1.0382,1.0384,1.0384,1.0384,1.0384,1.0384,1.0384,0,1.0509,1.0502,1.0496,1.0486,1.048,1.0474,1.0465,1.046,1.0453,1.0444,1.0437,1.0426,1.0417,1.0406,1.0395,1.0391,1.0387,1.0388,1.0388,1.0386,1.0386,1.0387,1.0391,1.0391,1.0391,1.0391,1.0391,1.0391,1.0513,1.0508,1.0501,1.0492,1.0484,1.0476,1.0471,1.0464,1.0456,1.0445,1.0437,1.043,1.0419,1.0407,1.0398,1.0395,1.0391,1.0392,1.0388,1.0387,1.0387,1.0386,1.0387,1.0392,1.0392,1.0389,1.0389,1.0389]}]]